Weather History for Mankato, MN

Change the Weather History Date:

Monday, January 13, 2014

  Actual Average Record
Temperature  
Mean Temperature 30 °F -  
Max Temperature 37 °F 20 °F 44 °F (2002)
Min Temperature 24 °F 6 °F -18 °F (2009)
Degree Days  
Heating Degree Days 34    
Moisture  
Dew Point 23 °F    
Average Humidity 75    
Maximum Humidity 86    
Minimum Humidity 64    
Precipitation  
Precipitation 0.00 in - - ()
Sea Level Pressure  
Sea Level Pressure 29.62 in    
Wind  
Wind Speed 13 mph (West)    
Max Wind Speed 22 mph    
Max Gust Speed 31 mph    
Visibility 10 miles    
Events      
Averages and records for this station are not official NWS values.
T = Trace of Precipitation, MM = Missing Value Source: NWS Daily Summary

Daily Weather History Graph

Daily Weather History Graph

Search for Another Location

Airport:

Trip Planner

Search our weather history database for the weather conditions in past years. The results will help you decide how hot, cold, wet, or windy it might be!

Date:

Astronomy

Jan. 13, 2014 Rise Set
Actual Time 7:48 AM CST 5:00 PM CST
Civil Twilight 7:16 AM CST 5:32 PM CST
Nautical Twilight 6:40 AM CST 6:08 PM CST
Astronomical Twilight 6:05 AM CST 6:43 PM CST
Moon 3:16 PM CST (1/13) 5:37 AM CST (1/13)
Length of Visible Light 10h 16m
Length of Day
9h 11m
Waxing Gibbous, 95% of the Moon is Illuminated
Jan 13
Waxing Gibbous
Jan 15
Full
Jan 23
Last Quarter
Jan 30
New
Feb 6
First Quarter

Hourly Weather History & Observations

Time (CST) Temp. Windchill Dew Point Humidity Pressure Visibility Wind Dir Wind Speed Gust Speed Precip Events Conditions
12:15 AM 37.4 °F 28.9 °F 28.4 °F 70% 29.52 in 10.0 mi WNW 13.8 mph - N/A   Unknown
12:35 AM 37.4 °F 29.3 °F 30.2 °F 75% 29.52 in 10.0 mi WNW 12.7 mph - N/A   Unknown
12:55 AM 37.4 °F 28.9 °F 28.4 °F 70% 29.52 in 10.0 mi WNW 13.8 mph - N/A   Unknown
1:15 AM 37.4 °F 30.3 °F 28.4 °F 70% 29.52 in 10.0 mi WNW 10.4 mph 17.3 mph N/A   Unknown
1:35 AM 35.6 °F 27.5 °F 28.4 °F 75% 29.53 in 10.0 mi WNW 11.5 mph - N/A   Unknown
1:55 AM 35.6 °F 28.0 °F 28.4 °F 75% 29.53 in 10.0 mi WNW 10.4 mph - N/A   Unknown
2:15 AM 35.6 °F 26.6 °F 28.4 °F 75% 29.54 in 10.0 mi WNW 13.8 mph 18.4 mph N/A   Unknown
2:35 AM 35.6 °F 26.2 °F 28.4 °F 75% 29.55 in 10.0 mi NW 15.0 mph - N/A   Unknown
2:55 AM 35.6 °F 24.8 °F 28.4 °F 75% 29.55 in 10.0 mi NW 19.6 mph 26.5 mph N/A   Unknown
3:15 AM 33.8 °F 24.3 °F 26.6 °F 75% 29.57 in 10.0 mi NW 13.8 mph - N/A   Unknown
3:35 AM 33.8 °F 23.5 °F 26.6 °F 75% 29.58 in 10.0 mi NW 16.1 mph 20.7 mph N/A   Unknown
3:55 AM 32.0 °F 21.2 °F 26.6 °F 80% 29.59 in 10.0 mi NW 16.1 mph 20.7 mph N/A   Unknown
4:15 AM 32.0 °F 20.5 °F 26.6 °F 80% 29.59 in 10.0 mi NW 18.4 mph 31.1 mph N/A   Unknown
4:35 AM 30.2 °F 18.9 °F 26.6 °F 86% 29.60 in 10.0 mi NW 16.1 mph 24.2 mph N/A   Unknown
4:55 AM 30.2 °F 17.1 °F 26.6 °F 86% 29.60 in 10.0 mi NW 21.9 mph 28.8 mph N/A   Unknown
5:15 AM 30.2 °F 17.8 °F 24.8 °F 80% 29.60 in 10.0 mi NW 19.6 mph 23.0 mph N/A   Unknown
5:35 AM 28.4 °F 14.7 °F 23.0 °F 80% 29.62 in 10.0 mi NW 21.9 mph 26.5 mph N/A   Unknown
5:55 AM 28.4 °F 16.2 °F 21.2 °F 74% 29.63 in 10.0 mi NW 17.3 mph 23.0 mph N/A   Unknown
6:15 AM 28.4 °F 15.4 °F 21.2 °F 74% 29.64 in 10.0 mi NW 19.6 mph 24.2 mph N/A   Unknown
6:35 AM 26.6 °F 14.7 °F 19.4 °F 74% 29.65 in 10.0 mi NW 15.0 mph 25.3 mph N/A   Unknown
6:55 AM 26.6 °F 15.2 °F 19.4 °F 74% 29.65 in 10.0 mi NW 13.8 mph 20.7 mph N/A   Unknown
7:15 AM 26.6 °F 15.2 °F 19.4 °F 74% 29.66 in 10.0 mi NW 13.8 mph 21.9 mph N/A   Unknown
7:35 AM 26.6 °F 15.2 °F 19.4 °F 74% 29.67 in 10.0 mi NW 13.8 mph 18.4 mph N/A   Unknown
7:55 AM 26.6 °F 15.7 °F 19.4 °F 74% 29.67 in 10.0 mi NW 12.7 mph 20.7 mph N/A   Unknown
8:15 AM 24.8 °F 12.9 °F 19.4 °F 80% 29.68 in 10.0 mi NW 13.8 mph - N/A   Unknown
8:35 AM 26.6 °F 14.3 °F 19.4 °F 74% 29.69 in 10.0 mi NW 16.1 mph - N/A   Unknown
8:55 AM 26.6 °F 15.2 °F 19.4 °F 74% 29.70 in 10.0 mi NW 13.8 mph - N/A   Unknown
9:15 AM 26.6 °F 13.8 °F 19.4 °F 74% 29.70 in 7.0 mi WNW 17.3 mph 21.9 mph N/A   Unknown
9:35 AM - - - N/A% - - North - - N/A   Unknown
9:55 AM - - - N/A% - - North - - N/A   Unknown
10:15 AM 26.6 °F 13.8 °F 19.4 °F 74% 29.70 in 10.0 mi WNW 17.3 mph 20.7 mph N/A   Unknown
10:35 AM 26.6 °F 14.7 °F 19.4 °F 74% 29.70 in 10.0 mi WNW 15.0 mph - N/A   Unknown
10:55 AM 28.4 °F 16.6 °F 19.4 °F 69% 29.70 in 10.0 mi WNW 16.1 mph - N/A   Clear
11:15 AM 28.4 °F 17.0 °F 19.4 °F 69% 29.70 in 10.0 mi WNW 15.0 mph 23.0 mph N/A   Clear
11:35 AM 28.4 °F 16.6 °F 19.4 °F 69% 29.70 in 10.0 mi WNW 16.1 mph - N/A   Clear
11:55 AM 28.4 °F 16.6 °F 19.4 °F 69% 29.69 in 10.0 mi WNW 16.1 mph - N/A   Clear
12:15 PM 28.4 °F 17.5 °F 19.4 °F 69% 29.68 in 10.0 mi NW 13.8 mph - N/A   Clear
12:35 PM 30.2 °F 19.3 °F 19.4 °F 64% 29.68 in 10.0 mi WNW 15.0 mph 18.4 mph N/A   Clear
12:55 PM 30.2 °F 19.3 °F 19.4 °F 64% 29.68 in 10.0 mi WNW 15.0 mph 18.4 mph N/A   Clear
1:15 PM 30.2 °F 20.8 °F 19.4 °F 64% 29.67 in 10.0 mi WNW 11.5 mph - N/A   Clear
1:35 PM 30.2 °F 20.2 °F 21.2 °F 69% 29.67 in 10.0 mi West 12.7 mph - N/A   Clear
1:55 PM 30.2 °F 18.9 °F 21.2 °F 69% 29.67 in 10.0 mi West 16.1 mph - N/A   Clear
2:15 PM 30.2 °F 19.3 °F 23.0 °F 75% 29.67 in 10.0 mi West 15.0 mph - N/A   Clear
2:35 PM 30.2 °F 19.3 °F 21.2 °F 69% 29.67 in 10.0 mi West 15.0 mph - N/A   Clear
2:55 PM 30.2 °F 19.3 °F 21.2 °F 69% 29.67 in 10.0 mi West 15.0 mph - N/A   Clear
3:15 PM 30.2 °F 21.3 °F 23.0 °F 75% 29.67 in 10.0 mi West 10.4 mph - N/A   Clear
3:35 PM 30.2 °F 20.2 °F 21.2 °F 69% 29.67 in 10.0 mi West 12.7 mph - N/A   Clear
3:55 PM 30.2 °F 21.3 °F 21.2 °F 69% 29.67 in 10.0 mi West 10.4 mph - N/A   Clear
4:15 PM 30.2 °F 21.9 °F 21.2 °F 69% 29.67 in 10.0 mi West 9.2 mph - N/A   Mostly Cloudy
4:35 PM 30.2 °F 21.9 °F 23.0 °F 75% 29.67 in 10.0 mi WSW 9.2 mph - N/A   Mostly Cloudy
4:55 PM 30.2 °F 24.3 °F 23.0 °F 75% 29.67 in 10.0 mi WSW 5.8 mph - N/A   Mostly Cloudy
5:15 PM 30.2 °F 22.6 °F 24.8 °F 80% 29.67 in 10.0 mi WSW 8.1 mph - N/A   Overcast
5:35 PM 30.2 °F 25.4 °F 23.0 °F 75% 29.66 in 10.0 mi SSW 4.6 mph - N/A   Overcast
5:55 PM 30.2 °F 25.4 °F 23.0 °F 75% 29.66 in 10.0 mi SSW 4.6 mph - N/A   Overcast
6:15 PM 30.2 °F 24.3 °F 24.8 °F 80% 29.66 in 10.0 mi SSW 5.8 mph - N/A   Mostly Cloudy
6:35 PM 30.2 °F 24.3 °F 23.0 °F 75% 29.66 in 9.0 mi SSW 5.8 mph - N/A   Overcast
6:55 PM 30.2 °F 25.4 °F 23.0 °F 75% 29.65 in 10.0 mi South 4.6 mph - N/A   Overcast
7:15 PM 28.4 °F 20.4 °F 24.8 °F 86% 29.63 in 10.0 mi SE 8.1 mph - N/A   Overcast
7:35 PM 28.4 °F 19.7 °F 24.8 °F 86% 29.62 in 10.0 mi SE 9.2 mph - N/A   Overcast
7:55 PM 28.4 °F 19.7 °F 24.8 °F 86% 29.61 in 10.0 mi SE 9.2 mph - N/A   Overcast
8:15 PM 30.2 °F 20.8 °F 24.8 °F 80% 29.60 in 10.0 mi SE 11.5 mph - N/A   Overcast
8:35 PM 30.2 °F 20.2 °F 24.8 °F 80% 29.58 in 10.0 mi SSE 12.7 mph - N/A   Overcast
8:55 PM 30.2 °F 20.2 °F 24.8 °F 80% 29.57 in 10.0 mi SSE 12.7 mph - N/A   Overcast
9:15 PM 30.2 °F 19.3 °F 24.8 °F 80% 29.56 in 10.0 mi SSE 15.0 mph - N/A   Overcast
9:35 PM 30.2 °F 21.3 °F 24.8 °F 80% 29.54 in 10.0 mi SSE 10.4 mph - N/A   Overcast
9:55 PM 32.0 °F 23.0 °F 26.6 °F 80% 29.54 in 10.0 mi South 11.5 mph - N/A   Overcast
10:15 PM 32.0 °F 24.2 °F 24.8 °F 75% 29.53 in 10.0 mi South 9.2 mph - N/A   Mostly Cloudy
10:35 PM 32.0 °F 24.8 °F 24.8 °F 75% 29.52 in 10.0 mi South 8.1 mph - N/A   Scattered Clouds
10:55 PM 32.0 °F 25.6 °F 24.8 °F 75% 29.52 in 10.0 mi South 6.9 mph - N/A   Overcast
11:15 PM 32.0 °F 25.6 °F 24.8 °F 75% 29.51 in 10.0 mi South 6.9 mph - N/A   Overcast
11:35 PM 32.0 °F 26.4 °F 24.8 °F 75% 29.50 in 10.0 mi South 5.8 mph - N/A   Overcast
11:55 PM 33.8 °F 27.7 °F 24.8 °F 70% 29.49 in 10.0 mi South 6.9 mph - N/A   Overcast